Weather History for PAPO - October, 2012

Change the Weather History Date:

Sunday, October 7, 2012

  Actual Average Record
Temperature  
Mean Temperature 34 °F -  
Max Temperature 35 °F 31 °F 42 °F (1997)
Min Temperature 32 °F 25 °F 17 °F (1996)
Degree Days  
Heating Degree Days 32    
Moisture  
Dew Point 31 °F    
Average Humidity 87    
Maximum Humidity 100    
Minimum Humidity 80    
Precipitation  
Precipitation 0.00 in - - ()
Sea Level Pressure  
Sea Level Pressure 30.15 in    
Wind  
Wind Speed 17 mph (NW)    
Max Wind Speed 26 mph    
Max Gust Speed 31 mph    
Visibility 8 miles    
Events      
Averages and records for this station are not official NWS values.
T = Trace of Precipitation, MM = Missing Value Source: NWS Daily Summary

Daily Weather History Graph

Daily Weather History Graph

Search for Another Location

Airport or City:

Trip Planner

Search our weather history database for the weather conditions in past years. The results will help you decide how hot, cold, wet, or windy it might be!

Date:

Astronomy

Oct. 07, 2012 Rise Set
Actual Time 9:45 AM AKDT 8:02 PM AKDT
Civil Twilight 8:48 AM AKDT 8:58 PM AKDT
Nautical Twilight 7:42 AM AKDT 10:04 PM AKDT
Astronomical Twilight 6:31 AM AKDT 11:14 PM AKDT
Moon 11:08 PM AKDT (10/7) 6:54 PM AKDT (10/7)
Length of Visible Light 12h 10m
Length of Day
10h 17m
Waning Gibbous, 55% of the Moon is Illuminated
Oct 7
Waning Gibbous
Oct 7
Last Quarter
Oct 15
New
Oct 21
First Quarter
Oct 29
Full

Hourly Weather History & Observations

Time (AKDT) Temp. Windchill Dew Point Humidity Pressure Visibility Wind Dir Wind Speed Gust Speed Precip Events Conditions
12:16 AM 33.8 °F 24.3 °F 33.8 °F 100% 29.82 in 5.0 mi WSW 13.8 mph - N/A   Overcast
12:36 AM 33.8 °F 23.9 °F 32.0 °F 93% 29.83 in 4.0 mi WSW 15.0 mph - N/A   Overcast
12:56 AM 33.8 °F 25.3 °F 30.2 °F 87% 29.84 in 9.0 mi WSW 11.5 mph - N/A   Overcast
1:16 AM 33.8 °F 24.3 °F 30.2 °F 87% 29.85 in 9.0 mi WSW 13.8 mph - N/A   Overcast
1:36 AM 33.8 °F 24.8 °F 32.0 °F 93% 29.86 in 4.0 mi WSW 12.7 mph - N/A   Overcast
1:56 AM 33.8 °F 25.3 °F 32.0 °F 93% 29.87 in 4.0 mi WSW 11.5 mph - N/A   Overcast
2:16 AM 33.8 °F 25.8 °F 32.0 °F 93% 29.88 in 2.0 mi West 10.4 mph - N/A   Overcast
2:36 AM 33.8 °F 24.8 °F 32.0 °F 93% 29.89 in 2.5 mi West 12.7 mph - N/A   Overcast
2:56 AM 33.8 °F 24.8 °F 33.8 °F 100% 29.90 in 10.0 mi West 12.7 mph - N/A   Overcast
3:36 AM 35.6 °F 27.5 °F 33.8 °F 93% 29.92 in 9.0 mi West 11.5 mph - N/A   Overcast
3:56 AM 35.6 °F 27.5 °F 33.8 °F 93% 29.93 in 10.0 mi West 11.5 mph - N/A   Overcast
4:16 AM 35.6 °F 27.1 °F 33.8 °F 93% 29.94 in 8.0 mi West 12.7 mph - N/A   Overcast
4:36 AM 33.8 °F 24.8 °F 32.0 °F 93% 29.96 in 7.0 mi WNW 12.7 mph - N/A   Overcast
4:56 AM 33.8 °F 24.3 °F 33.8 °F 100% 29.97 in 5.0 mi WNW 13.8 mph - N/A   Overcast
5:16 AM 35.6 °F 27.1 °F 33.8 °F 93% 29.98 in 3.0 mi WNW 12.7 mph - N/A   Overcast
5:56 AM 35.6 °F 25.2 °F 33.8 °F 93% 29.99 in 4.0 mi NW 18.4 mph - N/A   Overcast
6:16 AM 35.6 °F 24.5 °F 33.8 °F 93% 30.00 in 2.0 mi NW 20.7 mph 25.3 mph N/A   Overcast
6:36 AM 35.6 °F 24.5 °F 33.8 °F 93% 30.01 in 4.0 mi NW 20.7 mph - N/A   Overcast
6:56 AM 35.6 °F 25.2 °F 33.8 °F 93% 30.03 in 6.0 mi NW 18.4 mph - N/A   Overcast
7:16 AM 35.6 °F 25.5 °F 33.8 °F 93% 30.04 in 6.0 mi NW 17.3 mph - N/A   Overcast
7:36 AM 33.8 °F 22.2 °F 32.0 °F 93% 30.05 in 3.0 mi NW 20.7 mph - N/A   Overcast
8:16 AM 33.8 °F 22.8 °F 30.2 °F 87% 30.07 in 10.0 mi NW 18.4 mph - N/A   Overcast
8:36 AM 33.8 °F 22.8 °F 32.0 °F 93% 30.08 in 9.0 mi NW 18.4 mph 23.0 mph N/A   Overcast
8:56 AM 35.6 °F 25.5 °F 32.0 °F 87% 30.09 in 5.0 mi NW 17.3 mph 21.9 mph N/A   Overcast
9:56 AM 35.6 °F 24.8 °F 32.0 °F 87% 30.12 in 8.0 mi NW 19.6 mph 25.3 mph N/A   Overcast
10:16 AM 35.6 °F 24.8 °F 30.2 °F 81% 30.13 in 10.0 mi NNW 19.6 mph - N/A   Overcast
10:36 AM 35.6 °F 24.0 °F 30.2 °F 81% 30.13 in 10.0 mi NW 23.0 mph - N/A   Overcast
10:56 AM 35.6 °F 24.8 °F 30.2 °F 81% 30.15 in 10.0 mi NW 19.6 mph - N/A   Overcast
11:16 AM 35.6 °F 25.2 °F 30.2 °F 81% 30.16 in 10.0 mi NW 18.4 mph - N/A   Overcast
11:36 AM 35.6 °F 25.5 °F 30.2 °F 81% 30.17 in 10.0 mi NNW 17.3 mph - N/A   Overcast
11:56 AM 35.6 °F 24.5 °F 30.2 °F 81% 30.18 in 9.0 mi NNW 20.7 mph - N/A   Overcast
12:16 PM 35.6 °F 24.8 °F 30.2 °F 81% 30.19 in 10.0 mi NW 19.6 mph - N/A   Overcast
12:36 PM 35.6 °F 24.5 °F 30.2 °F 81% 30.20 in 10.0 mi NNW 20.7 mph 26.5 mph N/A   Overcast
12:56 PM 35.6 °F 24.5 °F 30.2 °F 81% 30.21 in 10.0 mi NW 20.7 mph 27.6 mph N/A   Overcast
1:16 PM 35.6 °F 24.2 °F 30.2 °F 81% 30.21 in 10.0 mi NNW 21.9 mph 26.5 mph N/A   Overcast
1:36 PM 35.6 °F 24.8 °F 30.2 °F 81% 30.22 in 9.0 mi NW 19.6 mph 25.3 mph N/A   Overcast
1:56 PM 35.6 °F 24.2 °F 30.2 °F 81% 30.22 in 8.0 mi NNW 21.9 mph - N/A   Overcast
2:16 PM 35.6 °F 24.2 °F 30.2 °F 81% 30.23 in 10.0 mi NNW 21.9 mph - N/A   Overcast
2:36 PM 35.6 °F 24.8 °F 30.2 °F 81% 30.24 in 10.0 mi NNW 19.6 mph - N/A   Overcast
2:56 PM 35.6 °F 24.2 °F 30.2 °F 81% 30.24 in 10.0 mi NNW 21.9 mph - N/A   Overcast
3:16 PM 35.6 °F 24.5 °F 30.2 °F 81% 30.25 in 10.0 mi NNW 20.7 mph - N/A   Overcast
3:36 PM 35.6 °F 24.2 °F 30.2 °F 81% 30.26 in 10.0 mi NNW 21.9 mph - N/A   Overcast
3:56 PM 35.6 °F 24.5 °F 30.2 °F 81% 30.26 in 10.0 mi NNW 20.7 mph - N/A   Overcast
4:16 PM 35.6 °F 24.8 °F 30.2 °F 81% 30.27 in 10.0 mi NNW 19.6 mph - N/A   Overcast
4:36 PM 33.8 °F 22.5 °F 30.2 °F 87% 30.27 in 10.0 mi NNW 19.6 mph - N/A   Overcast
4:56 PM 33.8 °F 21.3 °F 30.2 °F 87% 30.27 in 10.0 mi NNW 24.2 mph - N/A   Overcast
5:16 PM 33.8 °F 21.6 °F 28.4 °F 81% 30.28 in 10.0 mi NNW 23.0 mph - N/A   Overcast
5:36 PM 33.8 °F 22.5 °F 28.4 °F 81% 30.29 in 10.0 mi NNW 19.6 mph - N/A   Mostly Cloudy
5:56 PM 33.8 °F 22.5 °F 28.4 °F 81% 30.29 in 10.0 mi NNW 19.6 mph - N/A   Overcast
6:16 PM 33.8 °F 21.6 °F 28.4 °F 81% 30.30 in 10.0 mi North 23.0 mph - N/A   Overcast
6:36 PM 33.8 °F 22.2 °F 28.4 °F 81% 30.30 in 5.0 mi NNW 20.7 mph - N/A   Overcast
6:56 PM 32.0 °F 19.5 °F 28.4 °F 87% 30.31 in 4.0 mi NNW 21.9 mph - N/A   Overcast
7:16 PM 32.0 °F 20.1 °F 28.4 °F 87% 30.31 in 4.0 mi NNW 19.6 mph - N/A   Overcast
7:56 PM 32.0 °F 19.5 °F 28.4 °F 87% 30.33 in 4.0 mi NNW 21.9 mph 27.6 mph N/A   Overcast
8:36 PM 32.0 °F 19.8 °F 28.4 °F 87% 30.33 in 10.0 mi NNW 20.7 mph 25.3 mph N/A   Overcast
8:56 PM 32.0 °F 19.2 °F 28.4 °F 87% 30.33 in 10.0 mi NNW 23.0 mph - N/A   Overcast
9:16 PM 32.0 °F 18.9 °F 26.6 °F 80% 30.34 in 10.0 mi NNW 24.2 mph - N/A   Overcast
9:36 PM 32.0 °F 18.9 °F 28.4 °F 87% 30.35 in 7.0 mi North 24.2 mph - N/A   Overcast
9:56 PM 32.0 °F 18.9 °F 28.4 °F 87% 30.35 in 10.0 mi NNW 24.2 mph - N/A   Overcast
10:16 PM 32.0 °F 18.4 °F 28.4 °F 87% 30.36 in 8.0 mi NNW 26.5 mph - N/A   Overcast
10:36 PM 32.0 °F 19.2 °F 26.6 °F 80% 30.36 in 10.0 mi North 23.0 mph 29.9 mph N/A   Overcast
10:56 PM 32.0 °F 18.6 °F 26.6 °F 80% 30.37 in 10.0 mi North 25.3 mph 29.9 mph N/A   Overcast
11:16 PM 32.0 °F 19.5 °F 28.4 °F 87% 30.37 in 10.0 mi North 21.9 mph - N/A   Overcast
11:36 PM 32.0 °F 18.9 °F 28.4 °F 87% 30.38 in 10.0 mi NNW 24.2 mph - N/A   Overcast
11:56 PM 32.0 °F 18.9 °F 28.4 °F 87% 30.38 in 8.0 mi NNW 24.2 mph 31.1 mph N/A   Overcast